FW3015 Weather Reports


Display with metric or nautical units.
time (UTC)temp
F
wind
direction
speed
MPH
gust
MPH
rain 1hr
in
rain 24hr
in
rain mn
in
humidity
%
barometer
mb
20260505124003 58 208 6.0 15.0 0.00 0.02 0.00 72 1008.8
20260505123503 58 217 6.0 15.0 0.00 0.02 0.00 71 1008.9
20260505123003 58 220 5.0 14.0 0.00 0.02 0.00 72 1008.9
20260505122713 58 218 5.0 13.0 0.00 0.02 0.00 71 1008.9
20260505122003 58 217 4.0 11.0 0.00 0.02 0.00 72 1008.8
20260505121503 57 215 5.0 13.0 0.00 0.02 0.00 73 1008.8
20260505121003 57 212 4.0 13.0 0.00 0.02 0.00 73 1008.8
20260505120503 57 208 4.0 12.0 0.00 0.02 0.00 74 1008.8
20260505120004 56 208 4.0 12.0 0.00 0.02 0.00 74 1008.9
20260505115503 56 218 4.0 11.0 0.00 0.02 0.00 75 1008.8
20260505115003 56 217 4.0 12.0 0.00 0.02 0.00 76 1008.7
20260505114504 55 215 4.0 14.0 0.00 0.02 0.00 76 1008.7
20260505114003 55 217 3.0 14.0 0.00 0.02 0.00 77 1008.7
20260505113713 54 208 4.0 10.0 0.00 0.02 0.00 78 1008.7
20260505113003 54 201 5.0 13.0 0.00 0.02 0.00 78 1008.5
20260505112503 53 202 6.0 15.0 0.00 0.02 0.00 79 1008.6
20260505112003 53 204 5.0 15.0 0.00 0.02 0.00 79 1008.6
20260505111713 53 204 5.0 15.0 0.00 0.02 0.00 80 1008.6
20260505111003 52 212 5.0 15.0 0.00 0.02 0.00 81 1008.6
20260505110503 52 209 6.0 14.0 0.00 0.02 0.00 81 1008.7
20260505102003 49 207 4.0 13.0 0.00 0.02 0.00 85 1008.6
20260505101503 49 205 5.0 13.0 0.00 0.02 0.00 85 1008.7
20260505101213 49 202 5.0 12.0 0.00 0.02 0.00 85 1008.5
20260505100503 48 211 4.0 12.0 0.00 0.02 0.00 85 1008.5
20260505100005 48 207 5.0 12.0 0.00 0.02 0.00 86 1008.4
20260505095714 48 202 5.0 11.0 0.00 0.02 0.00 86 1008.4
20260505095003 48 200 5.0 12.0 0.00 0.02 0.00 86 1008.3
20260505094503 48 199 6.0 12.0 0.00 0.02 0.00 86 1008.3
20260505094213 48 201 6.0 12.0 0.00 0.02 0.00 86 1008.3
20260505093712 48 200 6.0 11.0 0.00 0.02 0.00 86 1008.2
20260505093004 48 203 4.0 11.0 0.00 0.02 0.00 86 1008.2
20260505092503 48 199 5.0 12.0 0.00 0.02 0.00 86 1008.2
20260505092003 48 200 6.0 12.0 0.00 0.02 0.00 86 1008.2
20260505091504 48 201 6.0 11.0 0.00 0.02 0.00 86 1008.1
20260505091003 48 203 5.0 17.0 0.00 0.02 0.00 86 1008.3
20260505090503 48 201 6.0 17.0 0.00 0.02 0.00 86 1008.2
20260505090005 48 198 5.0 12.0 0.00 0.02 0.00 86 1008.2
20260505085503 48 201 4.0 10.0 0.00 0.02 0.00 86 1008.2
20260505085005 48 206 4.0 10.0 0.00 0.02 0.00 86 1008.2
20260505084503 48 211 3.0 8.0 0.00 0.02 0.00 86 1008.2
20260505084213 48 215 2.0 6.0 0.00 0.02 0.00 85 1008.2
20260505083503 48 204 4.0 14.0 0.00 0.02 0.00 85 1008.1
20260505083213 48 204 4.0 14.0 0.00 0.02 0.00 85 1008.2
20260505082503 48 202 4.0 7.0 0.00 0.02 0.00 85 1008.1
20260505082003 48 195 4.0 12.0 0.00 0.02 0.00 85 1008.2
20260505081503 48 201 4.0 12.0 0.00 0.02 0.00 85 1008.1
20260505081003 48 207 4.0 9.0 0.00 0.02 0.00 84 1008.2
20260505080503 48 200 4.0 9.0 0.00 0.02 0.00 84 1008.2
20260505080003 48 201 4.0 10.0 0.00 0.02 0.00 84 1008.2
20260505075503 48 207 4.0 11.0 0.00 0.02 0.00 84 1008.2
20260505075003 48 220 4.0 11.0 0.00 0.02 0.00 84 1008.2
20260505074503 48 213 4.0 12.0 0.00 0.02 0.00 84 1008.2
20260505074213 48 206 4.0 12.0 0.00 0.02 0.00 84 1008.2
20260505073503 48 203 4.0 8.0 0.00 0.02 0.00 84 1008.2
20260505073003 49 204 4.0 9.0 0.00 0.02 0.00 83 1008.2
20260505072503 49 201 4.0 10.0 0.00 0.02 0.00 83 1008.1
20260505072003 49 202 4.0 10.0 0.00 0.02 0.00 83 1008.2
20260505071503 49 216 4.0 10.0 0.00 0.02 0.00 83 1008.2
20260505071003 49 211 3.0 10.0 0.00 0.02 0.00 83 1008.1
20260505070503 49 203 4.0 10.0 0.00 0.02 0.00 83 1008.1
20260505070003 49 208 4.0 10.0 0.00 0.02 0.00 83 1008.0
20260505065503 49 206 4.0 11.0 0.00 0.02 0.00 83 1008.0
20260505065003 49 200 5.0 11.0 0.00 0.02 0.00 83 1008.1
20260505064503 49 201 5.0 11.0 0.00 0.02 0.00 83 1008.0
20260505064003 49 213 4.0 12.0 0.00 0.02 0.00 83 1008.0
20260505063503 49 221 4.0 12.0 0.00 0.02 0.00 83 1007.9
20260505063003 49 213 5.0 12.0 0.00 0.02 0.00 83 1007.9
20260505062503 49 210 5.0 12.0 0.00 0.02 0.00 84 1007.9
20260505062003 49 214 4.0 12.0 0.00 0.02 0.00 84 1007.9
20260505061504 49 215 4.0 12.0 0.00 0.02 0.00 84 1007.8
20260505061004 49 211 5.0 15.0 0.00 0.02 0.00 84 1007.8
20260505060503 49 211 5.0 15.0 0.00 0.02 0.00 84 1007.8
20260505060004 49 210 5.0 14.0 0.00 0.02 0.00 84 1007.8
20260505055503 48 211 4.0 11.0 0.00 0.02 0.00 84 1007.7
20260505055004 48 216 3.0 9.0 0.00 0.02 0.00 84 1007.7
20260505054503 48 207 4.0 10.0 0.00 0.02 0.00 84 1007.8
20260505054003 48 198 4.0 10.0 0.00 0.02 0.00 84 1007.7
20260505053503 48 194 4.0 12.0 0.00 0.02 0.00 85 1007.6
20260505053003 48 201 4.0 12.0 0.00 0.02 0.00 85 1007.6
20260505052504 48 207 4.0 9.0 0.00 0.02 0.00 85 1007.5
20260505052003 48 208 3.0 8.0 0.00 0.02 0.00 85 1007.5
20260505051713 48 218 3.0 7.0 0.00 0.02 0.00 85 1007.5
20260505051003 48 208 3.0 9.0 0.00 0.02 0.00 86 1007.5
20260505050503 48 196 4.0 9.0 0.00 0.02 0.00 86 1007.5
20260505041503 45 222 3.0 8.0 0.00 0.02 0.00 90 1007.7
20260505041003 45 239 2.0 4.0 0.00 0.02 0.00 90 1007.7
20260505040503 45 239 2.0 6.0 0.00 0.02 0.00 90 1007.6
20260505040005 44 240 2.0 6.0 0.00 0.02 0.00 90 1007.6
20260505035503 44 241 1.0 6.0 0.00 0.02 0.02 89 1007.5
20260505035003 45 241 1.0 3.0 0.00 0.02 0.02 89 1007.5
20260505034503 45 241 1.0 5.0 0.00 0.02 0.02 88 1007.6
20260505034003 45 241 1.0 5.0 0.00 0.02 0.02 88 1007.5
20260505033504 46 241 0.0 2.0 0.00 0.02 0.02 88 1007.5
20260505033003 46 0 0.0 0.0 0.00 0.02 0.02 87 1007.7
20260505032503 46 0 0.0 0.0 0.00 0.02 0.02 87 1007.6
20260505032003 46 0 0.0 0.0 0.00 0.02 0.02 86 1007.6
20260505031714 46 0 0.0 0.0 0.00 0.02 0.02 86 1007.6
20260505031003 47 0 0.0 0.0 0.00 0.02 0.02 85 1007.6
20260505030503 47 241 0.0 4.0 0.00 0.02 0.02 85 1007.6
20260505030003 47 241 0.0 4.0 0.00 0.02 0.02 85 1007.6
20260505025503 47 0 0.0 0.0 0.00 0.02 0.02 84 1007.6
20260505025003 47 0 0.0 0.0 0.00 0.02 0.02 84 1007.7
20260505024503 48 0 0.0 0.0 0.00 0.02 0.02 83 1007.8
20260505024003 48 0 0.0 0.0 0.00 0.02 0.02 82 1007.9
20260505023503 48 241 0.0 2.0 0.00 0.02 0.02 82 1007.8
20260505023003 48 241 0.0 4.0 0.00 0.02 0.02 81 1007.7
20260505022505 48 241 0.0 4.0 0.00 0.02 0.02 81 1007.7
20260505022003 48 241 0.0 2.0 0.00 0.02 0.02 81 1007.7
20260505021503 49 241 0.0 2.0 0.00 0.02 0.02 80 1007.8
20260505021214 49 241 0.0 2.0 0.00 0.02 0.02 80 1007.7
20260505020504 49 241 0.0 2.0 0.00 0.02 0.02 80 1007.7
20260505020003 49 241 0.0 3.0 0.00 0.02 0.02 80 1007.7
20260505015503 49 242 0.0 5.0 0.00 0.02 0.02 80 1007.6
20260505015003 49 233 1.0 5.0 0.00 0.02 0.02 79 1007.6
20260505014503 49 223 1.0 3.0 0.00 0.02 0.02 79 1007.6
20260505014003 49 224 1.0 3.0 0.00 0.02 0.02 79 1007.6
20260505013503 49 223 0.0 4.0 0.00 0.02 0.02 78 1007.5
20260505013214 50 223 1.0 4.0 0.00 0.02 0.02 78 1007.5
20260505012503 50 217 1.0 4.0 0.00 0.02 0.02 78 1007.4
20260505012003 50 214 1.0 4.0 0.00 0.02 0.02 78 1007.4
20260505011506 50 209 1.0 7.0 0.00 0.02 0.02 77 1007.4
20260505011003 50 209 1.0 8.0 0.00 0.02 0.02 77 1007.3
20260505010503 50 217 2.0 8.0 0.00 0.02 0.02 78 1007.2
20260505010003 50 220 2.0 8.0 0.00 0.02 0.02 78 1007.1
20260505005503 50 223 2.0 7.0 0.00 0.02 0.02 78 1007.0
20260505005214 50 227 2.0 7.0 0.00 0.02 0.02 78 1007.0
20260505004503 50 226 3.0 8.0 0.00 0.02 0.02 78 1006.9
20260505004003 50 218 3.0 8.0 0.00 0.02 0.02 79 1006.9
20260505003713 50 222 3.0 8.0 0.00 0.02 0.02 79 1006.9
20260505003003 50 219 3.0 10.0 0.00 0.02 0.02 80 1006.7
20260505002504 50 214 2.0 10.0 0.00 0.02 0.02 81 1006.6
20260505002003 51 227 1.0 8.0 0.00 0.02 0.02 81 1006.7
20260505001505 51 226 1.0 8.0 0.00 0.02 0.02 80 1006.5
20260505001003 52 226 0.0 5.0 0.00 0.02 0.02 80 1006.5
20260505000503 52 226 0.0 5.0 0.00 0.02 0.02 80 1006.3
20260505000004 52 226 0.0 2.0 0.00 0.02 0.02 79 1006.2
20260504235503 53 226 0.0 2.0 0.00 0.02 0.02 78 1006.1
20260504235003 54 0 0.0 0.0 0.00 0.02 0.02 76 1006.0
20260504234503 54 0 0.0 0.0 0.00 0.02 0.02 76 1005.9
20260504234003 54 0 0.0 0.0 0.00 0.02 0.02 75 1005.8
20260504233503 55 226 0.0 1.0 0.00 0.02 0.02 75 1005.7
20260504233005 55 226 0.0 4.0 0.00 0.02 0.02 75 1005.7
20260504232503 55 226 1.0 4.0 0.00 0.02 0.02 73 1005.7
20260504232004 56 226 1.0 5.0 0.00 0.02 0.02 72 1005.5
20260504231503 56 227 1.0 5.0 0.00 0.02 0.02 70 1005.4
20260504231003 56 228 1.0 5.0 0.00 0.02 0.02 70 1005.4
20260504230504 57 229 1.0 5.0 0.00 0.02 0.02 70 1005.4
20260504230003 57 230 1.0 5.0 0.00 0.02 0.02 69 1005.4
20260504225714 57 230 1.0 5.0 0.00 0.02 0.02 68 1005.4
20260504225003 57 215 2.0 9.0 0.00 0.02 0.02 66 1005.2
20260504224503 57 206 1.0 9.0 0.00 0.02 0.02 66 1005.1
20260504224003 58 214 1.0 7.0 0.00 0.02 0.02 66 1005.0
20260504223712 58 213 2.0 9.0 0.00 0.02 0.02 66 1005.1
20260504223003 58 207 2.0 9.0 0.00 0.02 0.02 64 1005.1
20260504222503 58 229 2.0 8.0 0.00 0.02 0.02 65 1005.1
20260504222003 59 264 1.0 7.0 0.00 0.02 0.02 64 1005.3
20260504221504 59 250 2.0 8.0 0.00 0.02 0.02 64 1005.2
20260504221003 60 243 2.0 8.0 0.00 0.02 0.02 63 1005.0
20260504220503 60 248 2.0 7.0 0.00 0.02 0.02 63 1005.0
20260504220003 60 252 2.0 6.0 0.00 0.02 0.02 63 1004.9
20260504215503 60 247 1.0 6.0 0.00 0.02 0.02 63 1004.9
20260504215003 60 228 2.0 9.0 0.00 0.02 0.02 63 1004.8
20260504214503 60 228 2.0 9.0 0.00 0.02 0.02 63 1004.9
20260504214003 60 236 3.0 8.0 0.00 0.02 0.02 63 1004.9
20260504213503 60 237 3.0 10.0 0.00 0.02 0.02 62 1004.8
20260504213004 60 239 3.0 10.0 0.00 0.02 0.02 62 1004.8
20260504212503 60 229 3.0 9.0 0.00 0.02 0.02 63 1004.8
20260504212213 60 230 3.0 9.0 0.00 0.02 0.02 62 1004.8
20260504211503 60 250 2.0 5.0 0.00 0.02 0.02 65 1004.7
20260504211004 60 254 2.0 9.0 0.00 0.02 0.02 64 1004.7
20260504210503 60 244 2.0 9.0 0.00 0.02 0.02 63 1004.8
20260504210004 61 233 2.0 7.0 0.00 0.02 0.02 64 1004.6
20260504205503 61 238 2.0 7.0 0.00 0.02 0.02 63 1004.5
20260504205003 61 255 3.0 8.0 0.00 0.02 0.02 63 1004.6
20260504204503 61 258 3.0 9.0 0.00 0.02 0.02 64 1004.8
20260504204003 60 248 4.0 10.0 0.00 0.02 0.02 65 1004.8
20260504203504 60 239 4.0 10.0 0.00 0.02 0.02 65 1004.6
20260504203003 60 230 4.0 11.0 0.00 0.03 0.02 66 1004.6
20260504202503 59 236 3.0 11.0 0.00 0.03 0.02 68 1004.6
20260504202003 59 246 3.0 9.0 0.00 0.03 0.02 69 1004.7
20260504201713 58 254 2.0 6.0 0.00 0.03 0.02 69 1004.6
20260504201003 58 260 2.0 10.0 0.00 0.03 0.02 70 1004.6
20260504200503 58 248 3.0 10.0 0.00 0.03 0.02 69 1004.5
20260504200003 58 242 3.0 10.0 0.00 0.03 0.02 69 1004.5
20260504195503 58 226 3.0 10.0 0.00 0.03 0.02 70 1004.7
20260504195003 58 225 3.0 9.0 0.00 0.03 0.02 70 1004.6
20260504194503 57 242 3.0 9.0 0.00 0.04 0.02 73 1004.6
20260504194003 57 224 3.0 9.0 0.00 0.04 0.02 74 1004.8
20260504193503 56 236 3.0 9.0 0.00 0.04 0.02 77 1004.7
20260504193003 55 254 2.0 9.0 0.01 0.04 0.02 76 1004.7
20260504192503 54 238 2.0 9.0 0.01 0.04 0.02 77 1004.9
20260504192003 54 224 3.0 9.0 0.01 0.04 0.02 78 1004.8
20260504191503 54 222 4.0 11.0 0.01 0.04 0.02 77 1004.9
20260504191003 54 220 3.0 11.0 0.02 0.05 0.02 77 1005.0
20260504190504 54 212 3.0 12.0 0.02 0.05 0.02 80 1005.1
20260504190003 54 208 4.0 12.0 0.02 0.05 0.02 79 1005.2
20260504185713 54 214 3.0 9.0 0.02 0.05 0.02 78 1005.3
20260504185003 54 242 2.0 10.0 0.02 0.06 0.02 78 1005.4
20260504184503 54 243 2.0 11.0 0.02 0.06 0.02 78 1005.5
20260504184003 54 243 2.0 11.0 0.02 0.06 0.02 76 1005.7
20260504183715 54 227 1.0 7.0 0.02 0.06 0.02 77 1005.8
20260504183003 54 232 1.0 7.0 0.01 0.06 0.01 76 1005.7
20260504182503 54 240 1.0 7.0 0.01 0.06 0.01 75 1005.7
20260504182003 54 247 1.0 6.0 0.01 0.07 0.01 74 1005.7
20260504181503 54 221 1.0 7.0 0.01 0.07 0.01 73 1005.6
20260504181213 54 225 2.0 7.0 0.00 0.07 0.00 71 1005.7
20260504180505 54 254 3.0 11.0 0.00 0.08 0.00 71 1005.4
20260504180004 54 246 3.0 11.0 0.00 0.08 0.00 69 1005.4
20260504175714 54 241 3.0 9.0 0.00 0.09 0.00 68 1005.4
20260504175004 54 239 3.0 12.0 0.00 0.10 0.00 68 1005.4
20260504174503 54 227 2.0 11.0 0.00 0.12 0.00 68 1005.4
20260504174004 54 258 2.0 11.0 0.00 0.13 0.00 70 1005.3
20260504173503 55 264 2.0 11.0 0.00 0.13 0.00 70 1005.3
20260504173003 55 227 2.0 11.0 0.00 0.14 0.00 69 1005.2
20260504172503 56 214 3.0 10.0 0.00 0.14 0.00 67 1004.9
20260504172003 56 228 3.0 11.0 0.00 0.15 0.00 65 1004.9
20260504171714 57 245 3.0 11.0 0.00 0.15 0.00 63 1004.9
20260504171003 57 257 4.0 11.0 0.00 0.16 0.00 59 1004.9
20260504170503 58 232 5.0 11.0 0.00 0.16 0.00 58 1004.8
20260504150503 58 218 5.0 13.0 0.00 0.28 0.00 52 1005.8
20260504141003 57 238 2.0 9.0 0.00 0.37 0.00 53 1006.1
20260504140503 57 301 2.0 8.0 0.00 0.37 0.00 53 1006.2
20260504130503 53 306 6.0 15.0 0.00 0.43 0.00 55 1006.8
20260504130215 53 310 6.0 12.0 0.00 0.43 0.00 56 1006.8